M I D A S
Marine Information and Data Acquisition System
Tripno 2152 of the Zeeleeuw from 2011-07-27 05:25:13 to 2011-07-27 15:18:30
Back to CruiseResearch ActivitiesStationsMapUnderway DataData graphs

EquipmentUnitsComments
TimeDGPSUTC
LatitudeDGPSDM.mWGS84
LongitudeDGPSDM.mWGS84
SpeedMeteo Stationm/sRelative wind speed
DirectionMeteo StationdegRelative wind direction
TemperatureMeteo Stationdeg CelciusAir temperature
PressureMeteo StationPaAtmospheric pressure
HumidityMeteo Station%Relative humidity
Missing or incorrect values are displayed as -999
Metereological data collected by the RV Zeeleeuw from 2011-07-27 05:26:57 to 2011-07-27 16:27:51
                                                                                    Next 1000 lines
Time Latitude Longitude Speed Direction Temperature Pressure Humidity
2011-07-27 05:27:07 51°13.634 2°56.013 6.6 81 15.5 101710 46
2011-07-27 05:27:13 51°13.634 2°56.008 5.5 35 15.5 101710 46
2011-07-27 05:27:17 51°13.635 2°56.004 6 82 15.5 101700 49
2011-07-27 05:27:23 51°13.636 2°55.996 6.1 37 15.5 101700 49
2011-07-27 05:27:29 51°13.638 2°55.987 6.7 79 15.5 101710 49
2011-07-27 05:27:34 51°13.64 2°55.979 7 36 15.5 101710 49
2011-07-27 05:27:40 51°13.642 2°55.968 8.5 27 15.5 101710 49
2011-07-27 05:27:45 51°13.644 2°55.959 9.9 36 15.5 101710 49
2011-07-27 05:27:51 51°13.646 2°55.947 8.7 80 15.5 101700 48
2011-07-27 05:27:56 51°13.648 2°55.938 7.1 37 15.5 101700 48
2011-07-27 05:28:01 51°13.65 2°55.929 8.6 81 15.5 101710 48
2011-07-27 05:28:06 51°13.652 2°55.92 7.2 38 15.5 101710 48
2011-07-27 05:28:11 51°13.654 2°55.91 9.2 78 15.5 101710 49
2011-07-27 05:28:16 51°13.656 2°55.901 7.5 33 15.5 101710 49
2011-07-27 05:28:21 51°13.659 2°55.892 7.3 80 15.5 101710 48
2011-07-27 05:28:26 51°13.661 2°55.882 8.8 39 15.5 101710 48
2011-07-27 05:28:31 51°13.664 2°55.873 10 75 15.5 101710 48
2011-07-27 05:28:36 51°13.667 2°55.864 5.9 36 15.5 101710 48
2011-07-27 05:28:42 51°13.671 2°55.853 3.3 28 15.5 101710 47
2011-07-27 05:28:46 51°13.673 2°55.845 7.2 35 15.5 101710 47
2011-07-27 05:28:51 51°13.676 2°55.836 6.1 80 15.5 101710 49
2011-07-27 05:28:56 51°13.68 2°55.827 8.7 33 15.5 101710 49
2011-07-27 05:29:01 51°13.684 2°55.819 7.5 80 15.5 101710 48
2011-07-27 05:29:06 51°13.688 2°55.811 10.1 39 15.5 101710 48
2011-07-27 05:29:11 51°13.692 2°55.803 7 78 15.5 101700 48
2011-07-27 05:29:16 51°13.696 2°55.794 4.4 39 15.5 101700 48
2011-07-27 05:29:21 51°13.7 2°55.787 7.7 74 15.5 101710 48
2011-07-27 05:29:26 51°13.704 2°55.779 9.3 36 15.5 101710 48
2011-07-27 05:29:31 51°13.709 2°55.771 10.3 75 15.5 101710 48
2011-07-27 05:29:36 51°13.713 2°55.763 9.2 33 15.5 101710 48
2011-07-27 05:29:41 51°13.718 2°55.756 8.9 21 15.6 101710 49
2011-07-27 05:29:46 51°13.723 2°55.748 6.2 35 15.6 101710 49
2011-07-27 05:29:51 51°13.728 2°55.74 10.3 82 15.6 101720 46
2011-07-27 05:29:56 51°13.733 2°55.733 7.8 32 15.6 101720 46
2011-07-27 05:30:01 51°13.738 2°55.726 7.7 78 15.6 101710 48
2011-07-27 05:30:06 51°13.743 2°55.718 5.3 32 15.6 101710 48
2011-07-27 05:30:11 51°13.749 2°55.711 6 81 15.6 101710 48
2011-07-27 05:30:16 51°13.754 2°55.704 6.1 38 15.6 101710 48
2011-07-27 05:30:21 51°13.76 2°55.697 6.6 81 15.6 101710 49
2011-07-27 05:30:26 51°13.766 2°55.69 4.2 39 15.6 101710 49
2011-07-27 05:30:31 51°13.771 2°55.683 3.2 82 15.7 101710 50
2011-07-27 05:30:36 51°13.777 2°55.677 4.8 33 15.7 101710 50
2011-07-27 05:30:42 51°13.785 2°55.669 4.2 26 15.8 101710 50
2011-07-27 05:30:47 51°13.791 2°55.663 5 31 15.8 101710 50
2011-07-27 05:30:51 51°13.796 2°55.659 6.4 81 15.9 101710 50
2011-07-27 05:30:57 51°13.803 2°55.652 5.1 38 15.9 101710 50
2011-07-27 05:31:02 51°13.81 2°55.647 4.1 76 16 101710 50
2011-07-27 05:31:06 51°13.815 2°55.644 5.9 37 16 101710 50
2011-07-27 05:31:11 51°13.822 2°55.64 5.8 82 16.1 101700 49
2011-07-27 05:31:16 51°13.829 2°55.636 5.7 33 16.1 101700 49
2011-07-27 05:31:21 51°13.836 2°55.633 7.9 81 16.2 101700 50
2011-07-27 05:31:26 51°13.843 2°55.63 7.8 40 16.2 101700 50
2011-07-27 05:31:31 51°13.851 2°55.628 3.7 81 16.2 101700 50
2011-07-27 05:31:36 51°13.858 2°55.626 9 34 16.2 101700 50
2011-07-27 05:31:41 51°13.866 2°55.625 4.9 76 16.1 101700 47
2011-07-27 05:31:46 51°13.873 2°55.624 10.4 36 16.1 101700 47
2011-07-27 05:31:51 51°13.881 2°55.623 7.6 80 16.1 101700 48
2011-07-27 05:31:56 51°13.888 2°55.623 10 32 16.1 101700 48
2011-07-27 05:32:00 51°13.894 2°55.623 4.6 74 16.1 101700 49
2011-07-27 05:32:07 51°13.903 2°55.624 4.3 36 16.1 101700 49
2011-07-27 05:32:12 51°13.91 2°55.626 4.4 79 16.1 101700 47
2011-07-27 05:32:16 51°13.915 2°55.626 4.3 37 16.1 101700 47
2011-07-27 05:32:22 51°13.922 2°55.629 4.1 80 16.1 101700 47
2011-07-27 05:32:27 51°13.928 2°55.631 4.3 44 16.1 101700 47
2011-07-27 05:32:32 51°13.934 2°55.633 4.2 45 16.1 101690 45
2011-07-27 05:32:36 51°13.939 2°55.635 3.7 36 16.1 101690 45
2011-07-27 05:32:41 51°13.944 2°55.638 3.8 42 16.1 101690 48
2011-07-27 05:32:46 51°13.949 2°55.64 3.2 40 16.1 101690 48
2011-07-27 05:32:51 51°13.954 2°55.643 2.9 41 16.1 101690 47
2011-07-27 05:32:56 51°13.957 2°55.645 3.7 42 16.1 101690 47
2011-07-27 05:33:01 51°13.961 2°55.647 6.7 43 16.1 101690 48
2011-07-27 05:33:06 51°13.963 2°55.649 5.6 40 16.1 101690 48
2011-07-27 05:33:11 51°13.965 2°55.65 6 39 16.1 101690 48
2011-07-27 05:33:16 51°13.965 2°55.651 6.6 40 16.1 101690 48
2011-07-27 05:33:21 51°13.966 2°55.651 5.1 31 16.1 101690 47
2011-07-27 05:33:26 51°13.966 2°55.652 5.2 29 16.1 101690 47
2011-07-27 05:33:31 51°13.966 2°55.651 5.9 25 16 101690 48
2011-07-27 05:33:36 51°13.966 2°55.65 4.1 27 16 101690 48
2011-07-27 05:33:41 51°13.965 2°55.649 5.2 26 16 101690 48
2011-07-27 05:33:46 51°13.964 2°55.647 6.4 19 16 101690 48
2011-07-27 05:33:51 51°13.963 2°55.642 6.6 12 16 101690 49
2011-07-27 05:33:56 51°13.962 2°55.636 9.8 13 16 101690 49
2011-07-27 05:34:00 51°13.961 2°55.631 5 4 16 101690 48
2011-07-27 05:34:06 51°13.961 2°55.623 7 9 16 101690 48
2011-07-27 05:34:11 51°13.961 2°55.616 4.9 355 16 101690 49
2011-07-27 05:34:16 51°13.962 2°55.609 6 357 16 101690 49
2011-07-27 05:34:21 51°13.963 2°55.602 7.1 280 16 101690 48
2011-07-27 05:34:26 51°13.965 2°55.595 9.3 348 16 101690 48
2011-07-27 05:34:31 51°13.968 2°55.587 6.8 279 16 101690 49
2011-07-27 05:34:36 51°13.971 2°55.581 9.6 336 16 101690 49
2011-07-27 05:34:41 51°13.975 2°55.573 8.4 340 16 101690 47
2011-07-27 05:34:45 51°13.978 2°55.567 8 339 16 101690 47
2011-07-27 05:34:50 51°13.984 2°55.559 9 279 16 101690 47
2011-07-27 05:34:55 51°13.99 2°55.55 10.5 336 16 101690 47
2011-07-27 05:35:00 51°13.997 2°55.542 9.8 278 16 101680 47
2011-07-27 05:35:05 51°14.005 2°55.534 9.7 333 16 101680 47
2011-07-27 05:35:09 51°14.012 2°55.527 10.5 282 16 101680 47
2011-07-27 05:35:15 51°14.023 2°55.517 11.2 331 16 101680 47
2011-07-27 05:35:20 51°14.033 2°55.508 11.8 282 15.9 101680 47
2011-07-27 05:35:25 51°14.043 2°55.498 10.7 334 15.9 101680 47
2011-07-27 05:35:29 51°14.051 2°55.49 11 279 15.9 101680 47
2011-07-27 05:35:35 51°14.064 2°55.478 12.1 332 15.9 101680 47
2011-07-27 05:35:40 51°14.075 2°55.468 10.8 333 15.9 101660 48
2011-07-27 05:35:45 51°14.086 2°55.458 5.4 335 15.9 101660 48
2011-07-27 05:35:49 51°14.095 2°55.449 10.1 281 15.9 101680 48
2011-07-27 05:35:54 51°14.107 2°55.439 10 332 15.9 101680 48
2011-07-27 05:36:00 51°14.121 2°55.427 12.8 284 15.9 101670 48
2011-07-27 05:36:05 51°14.133 2°55.416 12.3 335 15.9 101670 48
2011-07-27 05:36:09 51°14.143 2°55.408 10.7 284 15.9 101670 48
2011-07-27 05:36:14 51°14.156 2°55.397 11 335 15.9 101670 48
2011-07-27 05:36:19 51°14.168 2°55.386 10.6 281 15.9 101670 48
2011-07-27 05:36:24 51°14.181 2°55.375 11.5 336 15.9 101670 48
2011-07-27 05:36:29 51°14.194 2°55.364 5.8 281 15.9 101670 48
2011-07-27 05:36:34 51°14.207 2°55.352 10.3 335 15.9 101670 48
2011-07-27 05:36:39 51°14.219 2°55.34 12.1 336 15.9 101670 48
2011-07-27 05:36:44 51°14.231 2°55.328 12.8 338 15.9 101670 48
2011-07-27 05:36:49 51°14.244 2°55.316 6.4 282 15.9 101670 48
2011-07-27 05:36:53 51°14.254 2°55.306 13.3 335 15.9 101670 48
2011-07-27 05:36:58 51°14.267 2°55.294 6.3 279 15.9 101670 48
2011-07-27 05:37:03 51°14.279 2°55.282 11.8 336 15.9 101670 48
2011-07-27 05:37:09 51°14.294 2°55.267 10.3 278 15.9 101670 47
2011-07-27 05:37:13 51°14.304 2°55.257 11.7 335 15.9 101670 47
2011-07-27 05:37:18 51°14.317 2°55.245 10.2 281 15.8 101670 48
2011-07-27 05:37:23 51°14.33 2°55.232 12.3 334 15.8 101670 48
2011-07-27 05:37:28 51°14.343 2°55.22 10.7 279 15.8 101670 48
2011-07-27 05:37:33 51°14.355 2°55.207 6.6 333 15.8 101670 48
2011-07-27 05:37:37 51°14.366 2°55.197 15.2 334 15.8 101680 48
2011-07-27 05:37:43 51°14.382 2°55.181 11.6 333 15.8 101680 48
2011-07-27 05:37:48 51°14.396 2°55.169 15.5 280 15.8 101670 47
2011-07-27 05:37:53 51°14.409 2°55.155 16.4 334 15.8 101670 47
2011-07-27 05:37:58 51°14.422 2°55.142 13.4 277 15.8 101680 48
2011-07-27 05:38:03 51°14.436 2°55.128 15.5 334 15.8 101680 48
2011-07-27 05:38:07 51°14.446 2°55.117 6.4 284 15.8 101670 48
2011-07-27 05:38:13 51°14.462 2°55.099 12.7 334 15.8 101670 48
2011-07-27 05:38:17 51°14.472 2°55.088 13.3 286 15.8 101670 48
2011-07-27 05:38:23 51°14.489 2°55.07 4.6 334 15.8 101670 48
2011-07-27 05:38:28 51°14.502 2°55.056 12.8 283 15.8 101670 47
2011-07-27 05:38:33 51°14.515 2°55.04 12.2 334 15.8 101670 47
2011-07-27 05:38:37 51°14.526 2°55.027 6.7 335 15.8 101670 47
2011-07-27 05:38:43 51°14.541 2°55.007 12.4 334 15.8 101670 47
2011-07-27 05:38:48 51°14.553 2°54.989 3.3 285 15.8 101660 48
2011-07-27 05:38:53 51°14.566 2°54.971 12.5 334 15.8 101660 48
2011-07-27 05:38:57 51°14.577 2°54.957 16.3 283 15.8 101660 48
2011-07-27 05:39:03 51°14.592 2°54.936 12.7 332 15.8 101660 48
2011-07-27 05:39:08 51°14.605 2°54.919 11.8 281 15.7 101670 48
2011-07-27 05:39:13 51°14.619 2°54.903 15 335 15.7 101670 48
2011-07-27 05:39:17 51°14.63 2°54.889 12.4 284 15.7 101660 47
2011-07-27 05:39:23 51°14.646 2°54.869 11.1 332 15.7 101660 47
2011-07-27 05:39:28 51°14.659 2°54.852 14.4 278 15.7 101670 48
2011-07-27 05:39:33 51°14.673 2°54.836 5.9 334 15.7 101670 48
2011-07-27 05:39:37 51°14.684 2°54.822 15.3 335 15.8 101670 48
2011-07-27 05:39:42 51°14.697 2°54.806 15.1 334 15.8 101670 48
2011-07-27 05:39:47 51°14.711 2°54.789 11.9 282 15.8 101680 48
2011-07-27 05:39:53 51°14.727 2°54.77 6.7 332 15.8 101680 48
2011-07-27 05:39:57 51°14.738 2°54.757 13 285 15.8 101660 48
2011-07-27 05:40:03 51°14.754 2°54.737 3.3 333 15.8 101660 48
2011-07-27 05:40:08 51°14.768 2°54.72 16.9 283 15.8 101650 48
2011-07-27 05:40:13 51°14.781 2°54.704 13.7 332 15.8 101650 48
2011-07-27 05:40:18 51°14.795 2°54.687 14.6 285 15.8 101670 48
2011-07-27 05:40:23 51°14.808 2°54.671 14.4 333 15.8 101670 48
2011-07-27 05:40:28 51°14.822 2°54.656 14.8 284 15.8 101670 47
2011-07-27 05:40:33 51°14.836 2°54.64 13.7 334 15.8 101670 47
2011-07-27 05:40:38 51°14.85 2°54.624 12.8 333 15.8 101660 48
2011-07-27 05:40:44 51°14.866 2°54.605 11.2 332 15.8 101660 48
2011-07-27 05:40:49 51°14.88 2°54.589 14.5 281 15.8 101670 48
2011-07-27 05:40:53 51°14.891 2°54.576 6.2 332 15.8 101670 48
2011-07-27 05:40:58 51°14.904 2°54.56 6.8 281 15.8 101670 48
2011-07-27 05:41:03 51°14.918 2°54.544 13.7 334 15.8 101670 48
2011-07-27 05:41:08 51°14.931 2°54.527 12.2 277 15.8 101670 48
2011-07-27 05:41:13 51°14.945 2°54.511 13.6 334 15.8 101670 48
2011-07-27 05:41:17 51°14.956 2°54.498 4.4 282 15.8 101670 48
2011-07-27 05:41:22 51°14.969 2°54.482 12.9 336 15.8 101670 48
2011-07-27 05:41:28 51°14.985 2°54.462 16.3 283 15.8 101680 48
2011-07-27 05:41:33 51°14.999 2°54.446 15.3 335 15.8 101680 48
2011-07-27 05:41:37 51°15.009 2°54.432 13.3 335 15.8 101660 48
2011-07-27 05:41:42 51°15.022 2°54.416 4.5 335 15.8 101660 48
2011-07-27 05:41:48 51°15.038 2°54.395 12.8 281 15.8 101670 48
2011-07-27 05:41:53 51°15.052 2°54.378 15.5 336 15.8 101670 48
2011-07-27 05:41:57 51°15.062 2°54.364 14.5 285 15.8 101660 47
2011-07-27 05:42:02 51°15.074 2°54.346 17.3 336 15.8 101660 47
2011-07-27 05:42:08 51°15.089 2°54.324 10.6 282 15.8 101670 48
2011-07-27 05:42:13 51°15.102 2°54.306 15 336 15.8 101670 48
2011-07-27 05:42:17 51°15.112 2°54.291 7.1 281 15.7 101660 48
2011-07-27 05:42:23 51°15.127 2°54.27 12.2 333 15.7 101660 48
2011-07-27 05:42:28 51°15.14 2°54.253 15.3 280 15.7 101660 48
2011-07-27 05:42:33 51°15.153 2°54.237 6.8 334 15.7 101660 48
2011-07-27 05:42:37 51°15.164 2°54.223 13.8 334 15.7 101670 48
2011-07-27 05:42:42 51°15.177 2°54.206 15.2 336 15.7 101670 48
2011-07-27 05:42:48 51°15.193 2°54.185 4.3 280 15.7 101670 48
2011-07-27 05:42:53 51°15.206 2°54.169 14.2 335 15.7 101670 48
2011-07-27 05:42:57 51°15.217 2°54.155 12.7 285 15.7 101660 48
2011-07-27 05:43:03 51°15.233 2°54.135 13.2 335 15.7 101660 48
2011-07-27 05:43:08 51°15.246 2°54.119 10.9 282 15.7 101670 46
2011-07-27 05:43:13 51°15.259 2°54.102 11.5 334 15.7 101670 46
2011-07-27 05:43:17 51°15.27 2°54.089 14.7 284 15.7 101680 47
2011-07-27 05:43:23 51°15.286 2°54.07 6.4 332 15.7 101680 47
2011-07-27 05:43:28 51°15.3 2°54.054 5.9 281 15.7 101650 48
2011-07-27 05:43:33 51°15.313 2°54.039 6.7 333 15.7 101650 48
2011-07-27 05:43:37 51°15.324 2°54.026 4.4 334 15.7 101660 48
2011-07-27 05:43:42 51°15.337 2°54.009 13.3 336 15.7 101660 48
2011-07-27 05:43:48 51°15.353 2°53.989 11.8 282 15.7 101660 49
2011-07-27 05:43:53 51°15.366 2°53.972 12.7 335 15.7 101660 49
2011-07-27 05:43:57 51°15.377 2°53.958 6.7 282 15.8 101670 49
2011-07-27 05:44:02 51°15.39 2°53.94 13.3 334 15.8 101670 49
2011-07-27 05:44:08 51°15.405 2°53.919 4 279 15.8 101660 49
2011-07-27 05:44:13 51°15.418 2°53.902 12.5 333 15.8 101660 49
2011-07-27 05:44:17 51°15.428 2°53.888 15.6 286 15.8 101670 48
2011-07-27 05:44:23 51°15.444 2°53.867 13 334 15.8 101670 48
2011-07-27 05:44:27 51°15.454 2°53.853 7 285 15.8 101660 48
2011-07-27 05:44:33 51°15.469 2°53.832 7.1 333 15.8 101660 48
2011-07-27 05:44:37 51°15.48 2°53.817 15.4 333 15.8 101660 48
2011-07-27 05:44:43 51°15.495 2°53.797 14.4 333 15.8 101660 48
2011-07-27 05:44:47 51°15.506 2°53.783 12.6 281 15.8 101660 48
2011-07-27 05:44:53 51°15.522 2°53.763 17.2 334 15.8 101660 48
2011-07-27 05:44:57 51°15.533 2°53.75 6.9 282 15.8 101670 48
2011-07-27 05:45:03 51°15.549 2°53.731 16.6 332 15.8 101670 48
2011-07-27 05:45:08 51°15.563 2°53.715 4.7 282 15.8 101660 48
2011-07-27 05:45:13 51°15.576 2°53.699 14.3 332 15.8 101660 48
2011-07-27 05:45:17 51°15.588 2°53.687 6.9 282 15.7 101670 48
2011-07-27 05:45:23 51°15.604 2°53.669 13.5 333 15.7 101670 48
2011-07-27 05:45:28 51°15.619 2°53.654 10.7 284 15.7 101660 48
2011-07-27 05:45:33 51°15.633 2°53.639 12.2 333 15.7 101660 48
2011-07-27 05:45:37 51°15.644 2°53.627 12.6 333 15.7 101660 48
2011-07-27 05:45:42 51°15.658 2°53.612 4.4 334 15.7 101660 48
2011-07-27 05:45:48 51°15.674 2°53.594 16.4 282 15.7 101670 47
2011-07-27 05:45:53 51°15.688 2°53.578 4.4 333 15.7 101670 47
2011-07-27 05:45:57 51°15.699 2°53.565 11.8 279 15.7 101670 48
2011-07-27 05:46:03 51°15.715 2°53.547 15.1 331 15.7 101670 48
2011-07-27 05:46:08 51°15.729 2°53.532 11.8 280 15.7 101670 49
2011-07-27 05:46:13 51°15.743 2°53.517 16 330 15.7 101670 49
2011-07-27 05:46:17 51°15.755 2°53.506 18.7 281 15.7 101660 48
2011-07-27 05:46:23 51°15.772 2°53.492 6.8 330 15.7 101660 48
2011-07-27 05:46:28 51°15.787 2°53.481 14.8 282 15.7 101660 48
2011-07-27 05:46:33 51°15.802 2°53.47 4.4 328 15.7 101660 48
2011-07-27 05:46:37 51°15.815 2°53.462 16 329 15.7 101660 48
2011-07-27 05:46:42 51°15.83 2°53.453 14.7 328 15.7 101660 48
2011-07-27 05:46:48 51°15.849 2°53.442 12.7 281 15.7 101660 48
2011-07-27 05:46:53 51°15.864 2°53.434 13.6 328 15.7 101660 48
2011-07-27 05:46:57 51°15.877 2°53.427 7.1 280 15.7 101660 48
2011-07-27 05:47:03 51°15.896 2°53.416 13.6 328 15.7 101660 48
2011-07-27 05:47:08 51°15.911 2°53.406 14.4 279 15.7 101670 49
2011-07-27 05:47:13 51°15.926 2°53.396 13 329 15.7 101670 49
2011-07-27 05:47:17 51°15.938 2°53.387 14.7 283 15.7 101670 49
2011-07-27 05:47:22 51°15.953 2°53.376 6.7 331 15.7 101670 49
2011-07-27 05:47:27 51°15.969 2°53.365 16.4 281 15.7 101670 48
2011-07-27 05:47:33 51°15.987 2°53.351 13.8 331 15.7 101670 48
2011-07-27 05:47:37 51°15.999 2°53.342 6.7 334 15.7 101660 47
2011-07-27 05:47:42 51°16.013 2°53.33 4.6 332 15.7 101660 47
2011-07-27 05:47:48 51°16.031 2°53.315 6.8 281 15.7 101660 48
2011-07-27 05:47:53 51°16.046 2°53.301 3.5 333 15.7 101660 48
2011-07-27 05:47:57 51°16.057 2°53.291 15.3 283 15.7 101660 48
2011-07-27 05:48:03 51°16.074 2°53.274 14.8 330 15.7 101660 48
2011-07-27 05:48:08 51°16.089 2°53.261 14 281 15.7 101650 48
2011-07-27 05:48:13 51°16.104 2°53.249 12.7 330 15.7 101650 48
2011-07-27 05:48:17 51°16.116 2°53.239 11.2 327 15.7 101660 47
2011-07-27 05:48:22 51°16.131 2°53.227 7.1 326 15.7 101660 47
2011-07-27 05:48:28 51°16.149 2°53.214 14.4 327 15.7 101650 47
2011-07-27 05:48:33 51°16.164 2°53.203 11.3 328 15.7 101650 47
2011-07-27 05:48:37 51°16.176 2°53.194 14.5 328 15.7 101660 48
2011-07-27 05:48:42 51°16.191 2°53.184 12.8 330 15.7 101660 48
2011-07-27 05:48:48 51°16.209 2°53.171 13.4 331 15.8 101660 48
2011-07-27 05:48:53 51°16.224 2°53.161 6.5 328 15.8 101660 48
2011-07-27 05:48:57 51°16.237 2°53.152 16.3 327 15.8 101660 49
2011-07-27 05:49:02 51°16.252 2°53.141 16.8 326 15.8 101660 49
2011-07-27 05:49:08 51°16.27 2°53.128 11.4 327 15.9 101670 48
2011-07-27 05:49:13 51°16.285 2°53.117 13.7 328 15.9 101670 48
2011-07-27 05:49:17 51°16.297 2°53.109 14.7 281 15.9 101670 48
2011-07-27 05:49:22 51°16.312 2°53.098 17 328 15.9 101670 48
2011-07-27 05:49:28 51°16.33 2°53.085 12.5 325 15.9 101670 48
2011-07-27 05:49:33 51°16.345 2°53.075 13.6 327 15.9 101670 48
2011-07-27 05:49:37 51°16.357 2°53.067 15.3 328 15.9 101680 49
2011-07-27 05:49:42 51°16.372 2°53.056 6.7 327 15.9 101680 49
2011-07-27 05:49:48 51°16.389 2°53.043 6.9 328 15.9 101670 48
2011-07-27 05:49:53 51°16.405 2°53.032 7.9 329 15.9 101670 48
2011-07-27 05:49:57 51°16.417 2°53.023 7 330 15.9 101680 48
2011-07-27 05:50:02 51°16.432 2°53.012 12.2 330 15.9 101680 48
2011-07-27 05:50:08 51°16.449 2°52.997 7.5 281 15.9 101670 49
2011-07-27 05:50:13 51°16.464 2°52.984 7.3 331 15.9 101670 49
2011-07-27 05:50:17 51°16.476 2°52.974 12.8 282 15.8 101670 48
2011-07-27 05:50:23 51°16.493 2°52.958 15.4 331 15.8 101670 48
2011-07-27 05:50:28 51°16.507 2°52.945 14.3 284 15.8 101670 48
2011-07-27 05:50:33 51°16.522 2°52.932 17.1 330 15.8 101670 48
2011-07-27 05:50:37 51°16.533 2°52.921 16.6 330 15.8 101670 48
2011-07-27 05:50:42 51°16.548 2°52.908 13.5 330 15.8 101670 48
2011-07-27 05:50:48 51°16.565 2°52.893 14.4 282 15.8 101680 47
2011-07-27 05:50:53 51°16.58 2°52.88 15.4 330 15.8 101680 47
2011-07-27 05:50:57 51°16.591 2°52.869 15.4 330 15.7 101670 47
2011-07-27 05:51:02 51°16.606 2°52.857 15.5 332 15.7 101670 47
2011-07-27 05:51:08 51°16.623 2°52.841 7 330 15.8 101670 47
2011-07-27 05:51:13 51°16.638 2°52.828 11.6 331 15.8 101670 47
2011-07-27 05:51:17 51°16.649 2°52.818 12 283 15.7 101670 48
2011-07-27 05:51:23 51°16.667 2°52.802 12.6 333 15.7 101670 48
2011-07-27 05:51:28 51°16.681 2°52.79 7 328 15.7 101670 48
2011-07-27 05:51:33 51°16.696 2°52.777 12.8 330 15.7 101670 48
2011-07-27 05:51:37 51°16.707 2°52.768 17 329 15.8 101670 48
2011-07-27 05:51:42 51°16.722 2°52.757 13.8 328 15.8 101670 48
2011-07-27 05:51:48 51°16.74 2°52.744 7.2 329 15.8 101670 48
2011-07-27 05:51:53 51°16.755 2°52.734 15.1 328 15.8 101670 48
2011-07-27 05:51:57 51°16.767 2°52.726 6.1 281 15.8 101680 48
2011-07-27 05:52:03 51°16.785 2°52.715 16 329 15.8 101680 48
2011-07-27 05:52:08 51°16.801 2°52.706 11.8 330 15.8 101680 48
2011-07-27 05:52:13 51°16.816 2°52.696 15.6 327 15.8 101680 48
2011-07-27 05:52:17 51°16.828 2°52.688 12.7 328 15.8 101670 47
2011-07-27 05:52:22 51°16.843 2°52.679 12.9 329 15.8 101670 47
2011-07-27 05:52:28 51°16.86 2°52.666 10.9 284 15.8 101670 48
2011-07-27 05:52:33 51°16.875 2°52.656 3.3 331 15.8 101670 48
2011-07-27 05:52:37 51°16.887 2°52.647 15.6 328 15.8 101670 48
2011-07-27 05:52:42 51°16.902 2°52.637 3.5 325 15.8 101670 48
2011-07-27 05:52:48 51°16.92 2°52.624 11.5 286 15.8 101670 48
2011-07-27 05:52:53 51°16.934 2°52.613 6.6 329 15.8 101670 48
2011-07-27 05:52:57 51°16.946 2°52.603 14.9 329 15.8 101680 48
2011-07-27 05:53:02 51°16.961 2°52.592 6.8 327 15.8 101680 48
2011-07-27 05:53:08 51°16.978 2°52.578 8 285 15.8 101670 48
2011-07-27 05:53:13 51°16.993 2°52.566 14.5 327 15.8 101670 48
2011-07-27 05:53:17 51°17.004 2°52.556 16.1 282 15.9 101680 48
2011-07-27 05:53:22 51°17.018 2°52.544 15.9 328 15.9 101680 48
2011-07-27 05:53:28 51°17.035 2°52.529 14.7 326 15.9 101680 48
2011-07-27 05:53:33 51°17.049 2°52.516 14.5 328 15.9 101680 48
2011-07-27 05:53:37 51°17.06 2°52.506 6.9 328 15.9 101670 48
2011-07-27 05:53:42 51°17.074 2°52.494 12.7 328 15.9 101670 48
2011-07-27 05:53:48 51°17.091 2°52.479 13.2 327 15.9 101660 47
2011-07-27 05:53:53 51°17.105 2°52.467 16.6 325 15.9 101660 47
2011-07-27 05:53:57 51°17.117 2°52.457 6.7 326 15.9 101680 48
2011-07-27 05:54:02 51°17.131 2°52.445 7.2 326 15.9 101680 48
2011-07-27 05:54:08 51°17.149 2°52.431 7.2 326 15.9 101670 48
2011-07-27 05:54:13 51°17.163 2°52.42 6.9 325 15.9 101670 48
2011-07-27 05:54:17 51°17.175 2°52.411 13.2 285 15.8 101660 48
2011-07-27 05:54:23 51°17.193 2°52.398 15.6 325 15.8 101660 48
2011-07-27 05:54:28 51°17.208 2°52.389 13 326 15.8 101660 49
2011-07-27 05:54:33 51°17.223 2°52.378 7 327 15.8 101660 49
2011-07-27 05:54:37 51°17.235 2°52.37 16.7 327 15.8 101660 48
2011-07-27 05:54:42 51°17.25 2°52.36 3.3 325 15.8 101660 48
2011-07-27 05:54:48 51°17.268 2°52.349 15.2 280 15.8 101670 48
2011-07-27 05:54:53 51°17.283 2°52.339 15.9 328 15.8 101670 48
2011-07-27 05:54:57 51°17.295 2°52.33 6.9 327 15.8 101660 48
2011-07-27 05:55:02 51°17.309 2°52.319 12.4 329 15.8 101660 48
2011-07-27 05:55:08 51°17.327 2°52.305 14 282 15.8 101660 48
2011-07-27 05:55:13 51°17.341 2°52.294 15.3 329 15.8 101660 48
2011-07-27 05:55:17 51°17.353 2°52.284 17.2 278 15.8 101670 48
2011-07-27 05:55:23 51°17.371 2°52.27 9 327 15.8 101670 48
2011-07-27 05:55:28 51°17.385 2°52.259 6.7 327 15.8 101680 48
2011-07-27 05:55:33 51°17.4 2°52.247 14.4 328 15.8 101680 48
2011-07-27 05:55:37 51°17.412 2°52.238 17.1 328 15.8 101670 48
2011-07-27 05:55:42 51°17.427 2°52.227 6.9 327 15.8 101670 48
2011-07-27 05:55:48 51°17.444 2°52.214 7 327 15.8 101680 48
2011-07-27 05:55:53 51°17.458 2°52.202 6.9 328 15.8 101680 48
2011-07-27 05:55:57 51°17.47 2°52.192 6.5 280 15.8 101670 49
2011-07-27 05:56:03 51°17.488 2°52.177 12.7 326 15.8 101670 49
2011-07-27 05:56:08 51°17.502 2°52.164 14 328 15.8 101670 48
2011-07-27 05:56:13 51°17.517 2°52.152 6.8 327 15.8 101670 48
2011-07-27 05:56:17 51°17.528 2°52.143 7.2 280 15.8 101670 48
2011-07-27 05:56:22 51°17.543 2°52.131 14.8 328 15.8 101670 48
2011-07-27 05:56:28 51°17.56 2°52.117 13.4 327 15.8 101670 47
2011-07-27 05:56:33 51°17.575 2°52.106 11.9 326 15.8 101670 47
2011-07-27 05:56:37 51°17.587 2°52.098 14.4 325 15.8 101670 48
2011-07-27 05:56:42 51°17.602 2°52.087 12.2 326 15.8 101670 48
2011-07-27 05:56:48 51°17.62 2°52.074 11.7 326 15.8 101670 48
2011-07-27 05:56:53 51°17.634 2°52.064 13.1 328 15.8 101670 48
2011-07-27 05:56:57 51°17.646 2°52.055 6.7 328 15.8 101660 48
2011-07-27 05:57:02 51°17.661 2°52.045 12 327 15.8 101660 48
2011-07-27 05:57:08 51°17.679 2°52.032 14.2 282 15.8 101670 49
2011-07-27 05:57:13 51°17.694 2°52.022 7.3 329 15.8 101670 49
2011-07-27 05:57:17 51°17.706 2°52.013 6.7 329 15.8 101670 49
2011-07-27 05:57:22 51°17.72 2°52.002 16.9 329 15.8 101670 49
2011-07-27 05:57:28 51°17.738 2°51.988 14.7 329 15.8 101670 48
2011-07-27 05:57:33 51°17.752 2°51.976 13.1 326 15.8 101670 48
2011-07-27 05:57:37 51°17.763 2°51.966 14.4 327 15.8 101670 48
2011-07-27 05:57:42 51°17.778 2°51.953 10.9 328 15.8 101670 48
2011-07-27 05:57:48 51°17.794 2°51.937 15 327 15.8 101680 48
2011-07-27 05:57:53 51°17.808 2°51.923 15.2 328 15.8 101680 48
2011-07-27 05:57:57 51°17.819 2°51.912 6.3 286 15.8 101680 49
2011-07-27 05:58:02 51°17.832 2°51.896 14.1 329 15.8 101680 49
2011-07-27 05:58:08 51°17.847 2°51.878 15 329 15.8 101670 49
2011-07-27 05:58:13 51°17.86 2°51.861 11.8 329 15.8 101670 49
2011-07-27 05:58:17 51°17.871 2°51.848 4.5 282 15.8 101690 49
2011-07-27 05:58:23 51°17.886 2°51.828 4.4 332 15.8 101690 49
2011-07-27 05:58:28 51°17.898 2°51.809 7.1 332 15.8 101670 49
2011-07-27 05:58:33 51°17.909 2°51.791 15.9 333 15.8 101670 49
2011-07-27 05:58:37 51°17.918 2°51.776 6.8 334 15.8 101680 48
2011-07-27 05:58:42 51°17.93 2°51.756 7.2 335 15.8 101680 48
2011-07-27 05:58:48 51°17.942 2°51.732 4.3 334 15.8 101680 48
2011-07-27 05:58:53 51°17.953 2°51.711 15.6 335 15.8 101680 48
2011-07-27 05:58:57 51°17.961 2°51.695 17 335 15.8 101680 48
2011-07-27 05:59:03 51°17.973 2°51.67 4.5 335 15.8 101680 48
2011-07-27 05:59:08 51°17.984 2°51.649 15.4 280 15.8 101680 47
2011-07-27 05:59:13 51°17.995 2°51.629 11.9 335 15.8 101680 47
2011-07-27 05:59:17 51°18.003 2°51.612 14.8 281 15.7 101690 48
2011-07-27 05:59:22 51°18.015 2°51.593 13.9 333 15.7 101690 48
2011-07-27 05:59:27 51°18.027 2°51.573 15.2 283 15.7 101680 48
2011-07-27 05:59:33 51°18.04 2°51.549 14.1 333 15.7 101680 48
2011-07-27 05:59:37 51°18.05 2°51.534 14.6 333 15.7 101690 48
2011-07-27 05:59:42 51°18.062 2°51.515 6.8 331 15.7 101690 48
2011-07-27 05:59:48 51°18.076 2°51.492 16.7 330 15.7 101680 48
2011-07-27 05:59:53 51°18.088 2°51.473 6.3 332 15.7 101680 48
2011-07-27 05:59:57 51°18.097 2°51.458 12.3 284 15.7 101690 48
2011-07-27 06:00:03 51°18.111 2°51.435 6.4 332 15.7 101690 48
2011-07-27 06:00:08 51°18.123 2°51.415 6.4 334 15.8 101680 48
2011-07-27 06:00:13 51°18.135 2°51.396 13.8 336 15.8 101680 48
2011-07-27 06:00:17 51°18.144 2°51.38 2.6 282 15.8 101690 49
2011-07-27 06:00:22 51°18.156 2°51.361 7.2 332 15.8 101690 49
2011-07-27 06:00:28 51°18.171 2°51.338 13.6 332 15.8 101680 49
2011-07-27 06:00:33 51°18.183 2°51.32 4.7 332 15.8 101680 49
2011-07-27 06:00:37 51°18.193 2°51.306 3.4 332 15.8 101690 49
2011-07-27 06:00:42 51°18.205 2°51.288 4.4 333 15.8 101690 49
2011-07-27 06:00:48 51°18.22 2°51.267 6.6 333 15.8 101690 48
2011-07-27 06:00:53 51°18.233 2°51.249 13.9 332 15.8 101690 48
2011-07-27 06:00:57 51°18.243 2°51.235 12 331 15.8 101690 49
2011-07-27 06:01:02 51°18.256 2°51.218 6.6 327 15.8 101690 49
2011-07-27 06:01:08 51°18.272 2°51.196 3.6 330 15.8 101690 49
2011-07-27 06:01:13 51°18.284 2°51.179 12.3 330 15.8 101690 49
2011-07-27 06:01:17 51°18.294 2°51.164 12.9 330 15.7 101690 48
2011-07-27 06:01:22 51°18.307 2°51.147 12.9 333 15.7 101690 48
2011-07-27 06:01:28 51°18.322 2°51.125 10.5 285 15.8 101680 48
2011-07-27 06:01:33 51°18.335 2°51.108 6.6 332 15.8 101680 48
2011-07-27 06:01:37 51°18.345 2°51.093 3.4 331 15.7 101690 49
2011-07-27 06:01:42 51°18.357 2°51.074 13.3 332 15.7 101690 49
2011-07-27 06:01:48 51°18.372 2°51.052 6.7 281 15.7 101680 47
2011-07-27 06:01:53 51°18.384 2°51.033 14.1 335 15.7 101680 47
2011-07-27 06:01:57 51°18.393 2°51.018 14.5 331 15.7 101680 49
2011-07-27 06:02:02 51°18.405 2°50.999 13.3 334 15.7 101680 49
2011-07-27 06:02:07 51°18.417 2°50.979 11.8 283 15.8 101680 48
2011-07-27 06:02:13 51°18.431 2°50.956 7 332 15.8 101680 48
2011-07-27 06:02:17 51°18.441 2°50.941 14.8 285 15.8 101690 49
2011-07-27 06:02:22 51°18.452 2°50.921 6.8 333 15.8 101690 49
2011-07-27 06:02:27 51°18.464 2°50.902 11.3 332 15.8 101680 48
2011-07-27 06:02:33 51°18.478 2°50.878 6.4 332 15.8 101680 48
2011-07-27 06:02:37 51°18.487 2°50.863 4.8 332 15.8 101690 49
2011-07-27 06:02:43 51°18.502 2°50.84 13.7 333 15.8 101690 49
2011-07-27 06:02:47 51°18.511 2°50.825 6.7 281 15.8 101690 49
2011-07-27 06:02:53 51°18.526 2°50.802 6.8 332 15.8 101690 49
2011-07-27 06:02:57 51°18.535 2°50.787 16.1 283 15.7 101690 49
2011-07-27 06:03:03 51°18.55 2°50.765 4.4 332 15.7 101690 49
2011-07-27 06:03:07 51°18.559 2°50.75 6.7 277 15.7 101690 48
2011-07-27 06:03:13 51°18.574 2°50.728 13.9 332 15.7 101690 48
2011-07-27 06:03:17 51°18.584 2°50.713 13.4 332 15.7 101690 48
2011-07-27 06:03:23 51°18.599 2°50.692 6.9 333 15.7 101690 48
2011-07-27 06:03:27 51°18.609 2°50.677 4.7 282 15.7 101690 48
2011-07-27 06:03:33 51°18.624 2°50.656 6.9 332 15.7 101690 48
2011-07-27 06:03:37 51°18.634 2°50.642 12.5 333 15.7 101690 48
2011-07-27 06:03:43 51°18.649 2°50.62 10.8 331 15.7 101690 48
2011-07-27 06:03:48 51°18.661 2°50.603 6.4 278 15.7 101680 48
2011-07-27 06:03:53 51°18.674 2°50.585 13.4 330 15.7 101680 48
2011-07-27 06:03:57 51°18.684 2°50.57 16.7 282 15.7 101690 48
2011-07-27 06:04:03 51°18.698 2°50.548 4.5 330 15.7 101690 48
2011-07-27 06:04:08 51°18.711 2°50.53 12.6 281 15.7 101690 48
2011-07-27 06:04:13 51°18.723 2°50.511 12 331 15.7 101690 48
2011-07-27 06:04:17 51°18.732 2°50.497 15.8 284 15.7 101690 48
2011-07-27 06:04:23 51°18.747 2°50.474 11.9 333 15.7 101690 48
2011-07-27 06:04:27 51°18.757 2°50.459 11.5 332 15.7 101690 47
2011-07-27 06:04:33 51°18.771 2°50.437 4.8 332 15.7 101690 47
2011-07-27 06:04:37 51°18.781 2°50.422 13.1 332 15.7 101690 48
2011-07-27 06:04:42 51°18.793 2°50.402 15.9 333 15.7 101690 48
2011-07-27 06:04:48 51°18.807 2°50.379 15.4 332 15.7 101700 48
2011-07-27 06:04:53 51°18.819 2°50.36 6.7 333 15.7 101700 48
2011-07-27 06:04:57 51°18.828 2°50.344 4.3 279 15.7 101690 48
2011-07-27 06:05:02 51°18.84 2°50.325 6.5 333 15.7 101690 48
2011-07-27 06:05:08 51°18.853 2°50.301 4.5 334 15.7 101680 48
2011-07-27 06:05:13 51°18.864 2°50.281 6.5 335 15.7 101680 48
2011-07-27 06:05:17 51°18.874 2°50.266 14.5 280 15.6 101690 48
2011-07-27 06:05:22 51°18.885 2°50.247 13.3 332 15.6 101690 48
2011-07-27 06:05:28 51°18.9 2°50.225 14.5 283 15.6 101680 48
2011-07-27 06:05:33 51°18.912 2°50.206 14 332 15.6 101680 48
2011-07-27 06:05:37 51°18.921 2°50.191 6.6 332 15.6 101680 47
2011-07-27 06:05:43 51°18.936 2°50.169 15.6 332 15.6 101680 47
2011-07-27 06:05:47 51°18.946 2°50.154 14.9 283 15.7 101690 48
2011-07-27 06:05:53 51°18.96 2°50.133 6.4 331 15.7 101690 48
2011-07-27 06:05:57 51°18.97 2°50.118 14.9 331 15.7 101670 49
2011-07-27 06:06:03 51°18.986 2°50.097 13.2 330 15.7 101670 49
2011-07-27 06:06:08 51°18.998 2°50.079 14.7 286 15.7 101690 48
2011-07-27 06:06:13 51°19.011 2°50.062 13.1 331 15.7 101690 48
2011-07-27 06:06:17 51°19.021 2°50.048 6.4 282 15.7 101690 48
2011-07-27 06:06:23 51°19.036 2°50.027 6.8 332 15.7 101690 48
2011-07-27 06:06:28 51°19.049 2°50.009 7.3 281 15.7 101690 49
2011-07-27 06:06:33 51°19.062 2°49.992 6.9 333 15.7 101690 49
2011-07-27 06:06:37 51°19.072 2°49.978 4.4 331 15.7 101690 49
2011-07-27 06:06:42 51°19.085 2°49.961 12.4 332 15.7 101690 49
2011-07-27 06:06:48 51°19.1 2°49.94 4.7 333 15.7 101690 49
2011-07-27 06:06:53 51°19.112 2°49.922 12.4 333 15.7 101690 49
2011-07-27 06:06:57 51°19.123 2°49.907 4.4 278 15.7 101690 48
2011-07-27 06:07:03 51°19.137 2°49.886 4.5 333 15.7 101690 48
2011-07-27 06:07:08 51°19.15 2°49.868 14.7 334 15.7 101680 47
2011-07-27 06:07:13 51°19.161 2°49.848 12.1 333 15.7 101680 47
2011-07-27 06:07:17 51°19.17 2°49.833 5.6 280 15.7 101700 48
2011-07-27 06:07:22 51°19.182 2°49.813 14 332 15.7 101700 48
2011-07-27 06:07:28 51°19.196 2°49.789 6.9 333 15.6 101690 47
2011-07-27 06:07:33 51°19.207 2°49.768 16.8 331 15.6 101690 47
2011-07-27 06:07:37 51°19.215 2°49.752 4.2 333 15.6 101690 48
2011-07-27 06:07:42 51°19.226 2°49.731 4.4 333 15.6 101690 48
2011-07-27 06:07:48 51°19.239 2°49.706 7 283 15.7 101680 48
2011-07-27 06:07:53 51°19.251 2°49.686 7.4 333 15.7 101680 48
2011-07-27 06:07:57 51°19.26 2°49.67 6.6 285 15.7 101690 48
2011-07-27 06:08:03 51°19.273 2°49.645 2.8 332 15.7 101690 48
2011-07-27 06:08:08 51°19.284 2°49.624 12.8 280 15.7 101680 48
2011-07-27 06:08:13 51°19.295 2°49.604 13.3 333 15.7 101680 48
2011-07-27 06:08:17 51°19.303 2°49.588 7 334 15.7 101690 47
2011-07-27 06:08:23 51°19.316 2°49.564 7 334 15.7 101690 47
2011-07-27 06:08:27 51°19.325 2°49.548 6.9 279 15.6 101680 47
2011-07-27 06:08:33 51°19.339 2°49.523 14.5 333 15.6 101680 47
2011-07-27 06:08:37 51°19.347 2°49.507 6.7 333 15.6 101680 47
2011-07-27 06:08:42 51°19.359 2°49.486 15.6 331 15.6 101680 47
2011-07-27 06:08:48 51°19.371 2°49.463 15.5 281 15.6 101680 48
2011-07-27 06:08:53 51°19.383 2°49.443 12.8 332 15.6 101680 48
2011-07-27 06:08:57 51°19.392 2°49.427 2.6 278 15.6 101690 48
2011-07-27 06:09:02 51°19.403 2°49.407 4.4 332 15.6 101690 48
2011-07-27 06:09:07 51°19.414 2°49.387 16.1 284 15.6 101690 48
2011-07-27 06:09:13 51°19.428 2°49.363 14.7 332 15.6 101690 48
2011-07-27 06:09:17 51°19.438 2°49.348 15.6 282 15.6 101680 48
2011-07-27 06:09:23 51°19.451 2°49.324 14.3 332 15.6 101680 48
2011-07-27 06:09:27 51°19.461 2°49.308 6.5 280 15.6 101690 48
2011-07-27 06:09:33 51°19.474 2°49.284 3.6 333 15.6 101690 48
2011-07-27 06:09:37 51°19.484 2°49.268 5.1 333 15.7 101690 48
2011-07-27 06:09:43 51°19.497 2°49.244 12 332 15.7 101690 48
2011-07-27 06:09:47 51°19.506 2°49.228 9.3 282 15.7 101680 46
2011-07-27 06:09:53 51°19.52 2°49.203 16.1 332 15.7 101680 46
2011-07-27 06:09:57 51°19.529 2°49.187 15.4 331 15.7 101690 48
2011-07-27 06:10:03 51°19.543 2°49.162 11.5 331 15.7 101690 48
2011-07-27 06:10:08 51°19.554 2°49.142 4.6 280 15.7 101680 48
2011-07-27 06:10:13 51°19.566 2°49.121 7.1 333 15.7 101680 48
2011-07-27 06:10:17 51°19.575 2°49.105 14.2 283 15.7 101700 48
2011-07-27 06:10:21 51°19.584 2°49.088 7.3 331 15.7 101700 48
2011-07-27 06:10:28 51°19.599 2°49.059 9.2 332 15.7 101690 47
2011-07-27 06:10:33 51°19.611 2°49.038 7.3 332 15.7 101690 47
2011-07-27 06:10:37 51°19.62 2°49.022 12.1 332 15.7 101690 48
2011-07-27 06:10:43 51°19.633 2°48.996 6.8 333 15.7 101690 48
2011-07-27 06:10:48 51°19.644 2°48.975 3.5 282 15.7 101690 48
2011-07-27 06:10:53 51°19.656 2°48.955 6.7 334 15.7 101690 48
2011-07-27 06:10:57 51°19.665 2°48.938 5 282 15.7 101680 48
2011-07-27 06:11:03 51°19.678 2°48.914 6.5 332 15.7 101680 48
2011-07-27 06:11:08 51°19.689 2°48.893 13.6 333 15.7 101690 48
2011-07-27 06:11:13 51°19.701 2°48.872 14.3 332 15.7 101690 48
2011-07-27 06:11:17 51°19.709 2°48.855 12.6 280 15.8 101680 48
2011-07-27 06:11:22 51°19.72 2°48.834 11.9 331 15.8 101680 48
2011-07-27 06:11:28 51°19.734 2°48.809 13.4 331 15.8 101700 49
2011-07-27 06:11:33 51°19.745 2°48.788 13.7 332 15.8 101700 49
2011-07-27 06:11:37 51°19.754 2°48.77 7.1 332 15.8 101690 47
2011-07-27 06:11:42 51°19.765 2°48.749 15.8 332 15.8 101690 47
2011-07-27 06:11:48 51°19.779 2°48.723 15.8 330 15.8 101690 48
2011-07-27 06:11:53 51°19.791 2°48.703 6.3 332 15.8 101690 48
2011-07-27 06:11:57 51°19.8 2°48.686 16 282 15.8 101690 48
2011-07-27 06:12:02 51°19.811 2°48.665 12.2 331 15.8 101690 48
2011-07-27 06:12:07 51°19.822 2°48.644 16 283 15.8 101690 48
2011-07-27 06:12:13 51°19.836 2°48.619 6.6 332 15.8 101690 48
2011-07-27 06:12:17 51°19.845 2°48.602 4.4 332 15.8 101690 48
2011-07-27 06:12:22 51°19.856 2°48.582 17.2 332 15.8 101690 48
2011-07-27 06:12:28 51°19.869 2°48.557 11.5 283 15.8 101690 47
2011-07-27 06:12:33 51°19.881 2°48.536 13.1 333 15.8 101690 47
2011-07-27 06:12:37 51°19.89 2°48.52 10.7 332 15.8 101690 48
2011-07-27 06:12:42 51°19.902 2°48.499 6.5 332 15.8 101690 48
2011-07-27 06:12:48 51°19.915 2°48.475 14.6 283 15.8 101690 48
2011-07-27 06:12:53 51°19.927 2°48.454 15.2 331 15.8 101690 48
2011-07-27 06:12:57 51°19.936 2°48.438 6.4 331 15.8 101690 48
2011-07-27 06:13:02 51°19.947 2°48.417 13.9 331 15.8 101690 48
2011-07-27 06:13:07 51°19.959 2°48.397 13.2 283 15.9 101690 48
2011-07-27 06:13:13 51°19.974 2°48.373 11.4 331 15.9 101690 48
2011-07-27 06:13:17 51°19.983 2°48.357 14.4 284 15.9 101680 47
2011-07-27 06:13:22 51°19.996 2°48.337 4.4 332 15.9 101680 47
2011-07-27 06:13:27 51°20.007 2°48.317 17.1 332 15.9 101700 48
2011-07-27 06:13:33 51°20.021 2°48.293 4.3 330 15.9 101700 48
2011-07-27 06:13:37 51°20.03 2°48.277 12.2 334 15.9 101690 48
2011-07-27 06:13:42 51°20.042 2°48.257 13.6 333 15.9 101690 48
2011-07-27 06:13:47 51°20.053 2°48.237 13.9 285 15.9 101690 48
2011-07-27 06:13:53 51°20.067 2°48.213 6.3 332 15.9 101690 48
2011-07-27 06:13:57 51°20.076 2°48.197 6.8 281 15.9 101690 48
2011-07-27 06:14:03 51°20.09 2°48.172 6.8 333 15.9 101690 48
2011-07-27 06:14:07 51°20.098 2°48.156 4.4 282 15.9 101690 48
2011-07-27 06:14:13 51°20.112 2°48.132 4.4 331 15.9 101690 48
2011-07-27 06:14:17 51°20.121 2°48.115 12.9 284 16 101690 48
2011-07-27 06:14:23 51°20.134 2°48.091 3.3 333 16 101690 48
2011-07-27 06:14:27 51°20.143 2°48.074 17.2 282 16 101690 48
2011-07-27 06:14:33 51°20.156 2°48.05 13.6 331 16 101690 48
2011-07-27 06:14:37 51°20.165 2°48.033 10 332 16 101690 49
2011-07-27 06:14:43 51°20.177 2°48.007 6.3 332 16 101690 49
2011-07-27 06:14:48 51°20.188 2°47.987 6.5 281 16 101690 48
2011-07-27 06:14:53 51°20.199 2°47.966 6 333 16 101690 48
2011-07-27 06:14:57 51°20.207 2°47.949 6.6 285 15.9 101700 49
2011-07-27 06:15:01 51°20.216 2°47.932 11.6 334 15.9 101700 49
2011-07-27 06:15:08 51°20.23 2°47.902 10.7 336 15.9 101680 46
2011-07-27 06:15:13 51°20.241 2°47.881 14.7 335 15.9 101680 46
2011-07-27 06:15:17 51°20.25 2°47.864 15.3 278 15.9 101690 49
2011-07-27 06:15:23 51°20.263 2°47.839 4.4 335 15.9 101690 49
2011-07-27 06:15:28 51°20.274 2°47.819 4.3 282 15.9 101670 48
2011-07-27 06:15:33 51°20.285 2°47.798 14.8 331 15.9 101670 48
2011-07-27 06:15:37 51°20.294 2°47.781 16.3 328 16 101690 48
2011-07-27 06:15:42 51°20.305 2°47.761 14.5 330 16 101690 48
2011-07-27 06:15:48 51°20.319 2°47.737 4.6 331 15.9 101690 48
2011-07-27 06:15:53 51°20.331 2°47.717 16.2 332 15.9 101690 48
2011-07-27 06:15:57 51°20.34 2°47.701 13.3 285 16 101680 49
2011-07-27 06:16:02 51°20.352 2°47.682 14.8 330 16 101680 49
2011-07-27 06:16:08 51°20.366 2°47.657 16 331 16 101690 48
2011-07-27 06:16:13 51°20.378 2°47.638 4.4 331 16 101690 48
2011-07-27 06:16:17 51°20.387 2°47.622 16.3 282 15.9 101680 49
2011-07-27 06:16:22 51°20.398 2°47.601 16.8 332 15.9 101680 49
2011-07-27 06:16:28 51°20.411 2°47.577 6.9 332 15.9 101680 47
2011-07-27 06:16:33 51°20.422 2°47.556 3.3 332 15.9 101680 47
2011-07-27 06:16:37 51°20.431 2°47.539 11.4 333 15.9 101690 48
2011-07-27 06:16:43 51°20.444 2°47.514 16 332 15.9 101690 48
2011-07-27 06:16:47 51°20.453 2°47.498 15.1 281 15.9 101690 48
2011-07-27 06:16:53 51°20.466 2°47.472 6.5 332 15.9 101690 48
2011-07-27 06:16:57 51°20.474 2°47.455 4.4 332 15.9 101690 48
2011-07-27 06:17:03 51°20.487 2°47.43 12.1 331 15.9 101690 48
2011-07-27 06:17:08 51°20.498 2°47.409 15.6 282 15.9 101690 48
2011-07-27 06:17:13 51°20.509 2°47.388 15.2 332 15.9 101690 48
2011-07-27 06:17:17 51°20.518 2°47.371 7.1 280 15.9 101690 48
2011-07-27 06:17:22 51°20.529 2°47.35 11.9 332 15.9 101690 48
2011-07-27 06:17:28 51°20.541 2°47.324 4.8 281 15.9 101690 49
2011-07-27 06:17:33 51°20.552 2°47.303 14.8 332 15.9 101690 49
2011-07-27 06:17:37 51°20.56 2°47.285 4.4 334 15.9 101700 48
2011-07-27 06:17:42 51°20.571 2°47.264 6.3 334 15.9 101700 48
2011-07-27 06:17:47 51°20.582 2°47.243 13.5 281 16 101680 47
2011-07-27 06:17:53 51°20.595 2°47.217 6.9 333 16 101680 47
2011-07-27 06:17:57 51°20.604 2°47.201 14.1 281 15.9 101690 48
2011-07-27 06:18:02 51°20.615 2°47.18 6.7 333 15.9 101690 48
2011-07-27 06:18:07 51°20.627 2°47.16 12.2 333 15.9 101690 48
2011-07-27 06:18:13 51°20.64 2°47.135 4.2 332 15.9 101690 48
2011-07-27 06:18:17 51°20.649 2°47.119 6.9 281 15.9 101690 48
2011-07-27 06:18:23 51°20.663 2°47.095 16.6 332 15.9 101690 48
2011-07-27 06:18:27 51°20.673 2°47.079 16.2 282 15.9 101690 49
2011-07-27 06:18:33 51°20.687 2°47.054 12.9 333 15.9 101690 49
2011-07-27 06:18:37 51°20.696 2°47.039 4.5 332 15.9 101690 48
2011-07-27 06:18:43 51°20.71 2°47.014 14.4 331 15.9 101690 48
2011-07-27 06:18:47 51°20.719 2°46.998 14 279 15.9 101700 48
2011-07-27 06:18:53 51°20.734 2°46.974 12.9 333 15.9 101700 48
2011-07-27 06:18:57 51°20.743 2°46.958 17.2 333 15.9 101690 48
2011-07-27 06:19:03 51°20.757 2°46.934 14.8 331 15.9 101690 48
2011-07-27 06:19:07 51°20.766 2°46.918 6.9 286 15.9 101690 48
2011-07-27 06:19:13 51°20.78 2°46.894 13.8 332 15.9 101690 48
2011-07-27 06:19:17 51°20.789 2°46.877 6.6 282 15.9 101690 48
2011-07-27 06:19:23 51°20.803 2°46.852 10.8 334 15.9 101690 48
2011-07-27 06:19:28 51°20.814 2°46.831 16.5 279 15.9 101690 48
2011-07-27 06:19:33 51°20.825 2°46.809 14.8 332 15.9 101690 48
2011-07-27 06:19:37 51°20.834 2°46.792 6.7 333 15.9 101690 48
2011-07-27 06:19:43 51°20.846 2°46.766 14.6 334 15.9 101690 48
2011-07-27 06:19:48 51°20.857 2°46.744 12 285 15.9 101690 48
2011-07-27 06:19:53 51°20.867 2°46.722 12.2 333 15.9 101690 48
2011-07-27 06:19:57 51°20.875 2°46.703 4.4 282 16 101690 48
2011-07-27 06:20:03 51°20.888 2°46.676 12.7 334 16 101690 48
2011-07-27 06:20:08 51°20.897 2°46.652 4.8 281 16 101690 48
2011-07-27 06:20:13 51°20.907 2°46.629 14.2 335 16 101690 48
2011-07-27 06:20:17 51°20.915 2°46.61 15.7 282 16 101690 48
2011-07-27 06:20:23 51°20.926 2°46.581 14.1 337 16 101690 48
2011-07-27 06:20:28 51°20.935 2°46.558 7 335 15.9 101680 46
2011-07-27 06:20:33 51°20.944 2°46.534 4.1 335 15.9 101680 46
2011-07-27 06:20:37 51°20.952 2°46.515 6.1 335 15.9 101680 49
2011-07-27 06:20:42 51°20.961 2°46.492 13.2 335 15.9 101680 49
2011-07-27 06:20:48 51°20.973 2°46.464 3.2 335 16 101680 49
2011-07-27 06:20:53 51°20.983 2°46.441 6.6 334 16 101680 49
2011-07-27 06:20:57 51°20.991 2°46.422 11.5 282 16 101670 49
2011-07-27 06:21:02 51°21.001 2°46.4 6.2 331 16 101670 49
2011-07-27 06:21:08 51°21.013 2°46.373 4.3 284 16 101690 49
2011-07-27 06:21:13 51°21.023 2°46.35 13.6 338 16 101690 49
2011-07-27 06:21:17 51°21.031 2°46.332 10.5 279 16 101690 49
2011-07-27 06:21:23 51°21.044 2°46.305 4 337 16 101690 49
2011-07-27 06:21:28 51°21.055 2°46.283 15.2 285 16 101690 49
2011-07-27 06:21:33 51°21.065 2°46.261 3.4 337 16 101690 49
2011-07-27 06:21:37 51°21.074 2°46.244 11.7 337 16 101690 49
2011-07-27 06:21:43 51°21.086 2°46.217 14.8 337 16 101690 49
2011-07-27 06:21:47 51°21.094 2°46.199 15.1 285 16 101690 48
2011-07-27 06:21:53 51°21.107 2°46.173 4.2 336 16 101690 48
2011-07-27 06:21:57 51°21.116 2°46.156 12.5 336 16 101690 48
2011-07-27 06:22:02 51°21.126 2°46.135 11.7 334 16 101690 48
2011-07-27 06:22:08 51°21.14 2°46.11 6.5 282 16 101690 49
2011-07-27 06:22:13 51°21.151 2°46.089 14.7 335 16 101690 49
2011-07-27 06:22:17 51°21.16 2°46.073 4.4 281 16 101690 49
2011-07-27 06:22:22 51°21.171 2°46.053 3.2 332 16 101690 49
2011-07-27 06:22:27 51°21.184 2°46.034 6.5 282 16 101680 48
2011-07-27 06:22:33 51°21.198 2°46.01 14.4 333 16 101680 48
2011-07-27 06:22:37 51°21.207 2°45.996 13.8 331 16 101680 49
2011-07-27 06:22:43 51°21.221 2°45.972 4.8 336 16 101680 49
2011-07-27 06:22:47 51°21.231 2°45.958 7.1 282 16 101690 48
2011-07-27 06:22:53 51°21.247 2°45.935 16.4 335 16 101690 48
2011-07-27 06:22:57 51°21.257 2°45.921 4.5 278 16 101680 48
2011-07-27 06:23:03 51°21.272 2°45.898 15.4 333 16 101680 48
2011-07-27 06:23:07 51°21.281 2°45.882 4.6 283 16 101690 47
2011-07-27 06:23:13 51°21.295 2°45.858 15.5 332 16 101690 47
2011-07-27 06:23:17 51°21.304 2°45.843 6.8 284 16 101680 49
2011-07-27 06:23:23 51°21.319 2°45.821 6.8 334 16 101680 49
2011-07-27 06:23:28 51°21.332 2°45.801 13.9 284 16 101680 49
2011-07-27 06:23:33 51°21.344 2°45.783 6.4 332 16 101680 49
2011-07-27 06:23:37 51°21.354 2°45.768 6.9 334 16 101690 48
2011-07-27 06:23:43 51°21.369 2°45.746 15 331 16 101690 48
2011-07-27 06:23:48 51°21.382 2°45.728 6.5 334 16 101690 49
2011-07-27 06:23:53 51°21.395 2°45.711 14.9 335 16 101690 49
2011-07-27 06:23:57 51°21.405 2°45.696 4.7 282 16 101690 49
2011-07-27 06:24:03 51°21.421 2°45.676 5.1 336 16 101690 49
2011-07-27 06:24:08 51°21.434 2°45.658 14.8 282 16.1 101690 49
2011-07-27 06:24:13 51°21.447 2°45.641 12.7 336 16.1 101690 49
2011-07-27 06:24:17 51°21.457 2°45.627 6.5 284 16.1 101680 48
2011-07-27 06:24:23 51°21.472 2°45.606 7 337 16.1 101680 48
2011-07-27 06:24:28 51°21.485 2°45.589 6.9 281 16.1 101690 48
2011-07-27 06:24:33 51°21.498 2°45.571 15.6 337 16.1 101690 48
2011-07-27 06:24:37 51°21.508 2°45.557 15.4 337 16.1 101680 48
2011-07-27 06:24:42 51°21.521 2°45.54 15.8 337 16.1 101680 48
2011-07-27 06:24:48 51°21.536 2°45.519 16.3 336 16.1 101690 48
2011-07-27 06:24:53 51°21.549 2°45.502 14.7 337 16.1 101690 48
2011-07-27 06:24:57 51°21.559 2°45.488 6.7 280 16.1 101680 49
2011-07-27 06:25:02 51°21.572 2°45.47 14 337 16.1 101680 49
2011-07-27 06:25:08 51°21.588 2°45.449 6.4 336 16 101680 49
2011-07-27 06:25:13 51°21.601 2°45.432 13.7 336 16 101680 49
2011-07-27 06:25:17 51°21.612 2°45.418 13.2 282 16 101680 49
2011-07-27 06:25:22 51°21.623 2°45.4 13 338 16 101680 49
2011-07-27 06:25:27 51°21.637 2°45.383 6.8 282 16 101680 49
2011-07-27 06:25:33 51°21.652 2°45.361 4.7 340 16 101680 49
2011-07-27 06:25:37 51°21.662 2°45.347 15 339 16 101690 49
2011-07-27 06:25:43 51°21.677 2°45.324 9.6 342 16 101690 49
2011-07-27 06:25:47 51°21.687 2°45.31 15.3 283 16 101680 47
2011-07-27 06:25:53 51°21.701 2°45.288 7.4 340 16 101680 47
2011-07-27 06:25:57 51°21.711 2°45.273 15.6 341 16 101690 48
2011-07-27 06:26:03 51°21.725 2°45.251 16.4 341 16 101690 48
2011-07-27 06:26:07 51°21.735 2°45.236 6.8 284 16 101680 48
2011-07-27 06:26:13 51°21.749 2°45.213 14 341 16 101680 48
2011-07-27 06:26:17 51°21.759 2°45.198 11.5 341 16 101680 49
2011-07-27 06:26:22 51°21.771 2°45.179 6.5 341 16 101680 49
2011-07-27 06:26:28 51°21.785 2°45.157 15.5 281 16 101680 49
2011-07-27 06:26:33 51°21.797 2°45.139 7.2 342 16 101680 49
2011-07-27 06:26:37 51°21.807 2°45.124 12.9 343 15.9 101680 49
2011-07-27 06:26:42 51°21.819 2°45.105 4.4 343 15.9 101680 49
2011-07-27 06:26:48 51°21.834 2°45.084 3.3 279 15.9 101680 49
2011-07-27 06:26:53 51°21.847 2°45.065 12.1 338 15.9 101680 49
2011-07-27 06:26:57 51°21.857 2°45.051 4.1 282 15.9 101680 48
2011-07-27 06:27:03 51°21.872 2°45.03 6.7 339 15.9 101680 48
2011-07-27 06:27:07 51°21.882 2°45.016 14.5 286 15.9 101680 49
2011-07-27 06:27:13 51°21.897 2°44.995 15.3 340 15.9 101680 49
2011-07-27 06:27:17 51°21.907 2°44.981 4.5 286 15.9 101680 48
2011-07-27 06:27:23 51°21.923 2°44.96 12 341 15.9 101680 48
2011-07-27 06:27:28 51°21.935 2°44.943 14.9 340 15.9 101680 49
2011-07-27 06:27:33 51°21.948 2°44.926 18.3 340 15.9 101680 49
2011-07-27 06:27:37 51°21.958 2°44.912 12.2 341 15.9 101670 49
2011-07-27 06:27:43 51°21.974 2°44.892 6.4 339 15.9 101670 49
2011-07-27 06:27:48 51°21.987 2°44.875 4.3 338 15.8 101680 49
2011-07-27 06:27:53 51°22 2°44.858 11 341 15.8 101680 49
2011-07-27 06:27:57 51°22.01 2°44.844 6.8 282 15.8 101690 49
2011-07-27 06:28:03 51°22.026 2°44.823 16 341 15.8 101690 49
2011-07-27 06:28:08 51°22.038 2°44.805 13.1 341 15.8 101680 49
2011-07-27 06:28:13 51°22.05 2°44.787 6.7 342 15.8 101680 49
2011-07-27 06:28:17 51°22.06 2°44.774 12 343 15.8 101680 49
2011-07-27 06:28:22 51°22.073 2°44.756 6.6 338 15.8 101680 49
2011-07-27 06:28:28 51°22.088 2°44.734 13.9 282 15.8 101680 48
2011-07-27 06:28:33 51°22.101 2°44.716 9.4 341 15.8 101680 48
2011-07-27 06:28:37 51°22.11 2°44.702 15.2 341 15.8 101680 49
2011-07-27 06:28:42 51°22.122 2°44.683 14 340 15.8 101680 49
2011-07-27 06:28:48 51°22.137 2°44.661 11.8 281 15.8 101690 48
2011-07-27 06:28:53 51°22.149 2°44.642 10.9 342 15.8 101690 48
2011-07-27 06:28:57 51°22.158 2°44.627 6.1 284 15.7 101680 49
2011-07-27 06:29:02 51°22.17 2°44.608 12.4 342 15.7 101680 49
2011-07-27 06:29:08 51°22.184 2°44.585 4.4 281 15.8 101700 49
2011-07-27 06:29:13 51°22.195 2°44.566 14 341 15.8 101700 49
2011-07-27 06:29:17 51°22.205 2°44.55 13.4 282 15.8 101680 48
2011-07-27 06:29:22 51°22.216 2°44.531 14.2 342 15.8 101680 48
2011-07-27 06:29:27 51°22.228 2°44.511 12 341 15.8 101690 49
2011-07-27 06:29:33 51°22.242 2°44.489 13.1 342 15.8 101690 49
2011-07-27 06:29:37 51°22.251 2°44.473 12.6 343 15.8 101690 48
2011-07-27 06:29:42 51°22.263 2°44.454 11 340 15.8 101690 48
2011-07-27 06:29:47 51°22.275 2°44.436 6.6 283 15.8 101670 49
2011-07-27 06:29:53 51°22.29 2°44.414 14.4 342 15.8 101670 49
2011-07-27 06:29:57 51°22.299 2°44.399 4.3 281 15.7 101680 48
2011-07-27 06:30:03 51°22.314 2°44.377 7.1 341 15.7 101680 48
2011-07-27 06:30:07 51°22.323 2°44.362 4.4 281 15.8 101690 49
2011-07-27 06:30:13 51°22.338 2°44.34 15 343 15.8 101690 49
2011-07-27 06:30:17 51°22.348 2°44.326 15.7 285 15.8 101680 49
2011-07-27 06:30:23 51°22.362 2°44.304 12.1 343 15.8 101680 49
2011-07-27 06:30:27 51°22.372 2°44.288 12.7 282 15.8 101670 49
2011-07-27 06:30:33 51°22.386 2°44.266 13.5 344 15.8 101670 49
2011-07-27 06:30:37 51°22.396 2°44.25 4.5 344 15.8 101680 49
2011-07-27 06:30:43 51°22.41 2°44.228 13.7 344 15.8 101680 49
2011-07-27 06:30:48 51°22.422 2°44.209 12.9 282 15.8 101690 49
2011-07-27 06:30:53 51°22.434 2°44.19 11 341 15.8 101690 49
2011-07-27 06:30:57 51°22.443 2°44.174 6.8 286 15.8 101680 49
2011-07-27 06:31:01 51°22.453 2°44.159 15.7 342 15.8 101680 49
2011-07-27 06:31:08 51°22.47 2°44.131 12.3 284 15.7 101690 47
2011-07-27 06:31:13 51°22.482 2°44.112 6.7 343 15.7 101690 47
2011-07-27 06:31:17 51°22.491 2°44.097 13.1 285 15.8 101680 48
2011-07-27 06:31:23 51°22.505 2°44.073 13.4 344 15.8 101680 48
2011-07-27 06:31:28 51°22.517 2°44.054 11.4 283 15.7 101670 48
2011-07-27 06:31:33 51°22.528 2°44.034 14.3 343 15.7 101670 48
2011-07-27 06:31:37 51°22.538 2°44.019 15.3 345 15.7 101680 49
2011-07-27 06:31:42 51°22.55 2°44 11.3 343 15.7 101680 49
2011-07-27 06:31:48 51°22.564 2°43.977 5.6 342 15.7 101670 49
2011-07-27 06:31:53 51°22.576 2°43.958 10.6 342 15.7 101670 49
2011-07-27 06:31:57 51°22.585 2°43.944 12.5 283 15.6 101680 48
2011-07-27 06:32:03 51°22.599 2°43.922 11.5 339 15.6 101680 48
2011-07-27 06:32:08 51°22.611 2°43.905 6.9 340 15.7 101680 48
2011-07-27 06:32:13 51°22.623 2°43.888 12.8 340 15.7 101680 48
2011-07-27 06:32:17 51°22.632 2°43.875 12 283 15.7 101690 49
2011-07-27 06:32:22 51°22.643 2°43.858 15.1 341 15.7 101690 49
2011-07-27 06:32:28 51°22.656 2°43.838 6 282 15.7 101680 49
2011-07-27 06:32:33 51°22.667 2°43.822 12.2 343 15.7 101680 49
2011-07-27 06:32:37 51°22.675 2°43.808 10.9 343 15.7 101680 48
2011-07-27 06:32:43 51°22.686 2°43.787 10.9 347 15.7 101680 48
2011-07-27 06:32:48 51°22.694 2°43.769 12.9 282 15.7 101690 49
2011-07-27 06:32:53 51°22.702 2°43.75 10.9 349 15.7 101690 49
2011-07-27 06:32:57 51°22.708 2°43.735 9.9 349 15.7 101680 48
2011-07-27 06:33:03 51°22.716 2°43.712 13 350 15.7 101680 48
2011-07-27 06:33:08 51°22.722 2°43.692 5.7 280 15.6 101670 49
2011-07-27 06:33:13 51°22.728 2°43.672 11.7 350 15.6 101670 49
2011-07-27 06:33:17 51°22.732 2°43.655 4.9 356 15.6 101680 49
2011-07-27 06:33:22 51°22.736 2°43.634 11.8 357 15.6 101680 49
2011-07-27 06:33:27 51°22.739 2°43.614 4.9 357 15.6 101680 49
2011-07-27 06:33:33 51°22.741 2°43.588 8.1 356 15.6 101680 49
2011-07-27 06:33:37 51°22.742 2°43.572 10.1 3 15.6 101670 50
2011-07-27 06:33:42 51°22.743 2°43.552 10.9 358 15.6 101670 50
2011-07-27 06:33:47 51°22.743 2°43.533 9.1 -999 15.7 101680 47
2011-07-27 06:33:53 51°22.743 2°43.511 4.6 360 15.7 101680 47
2011-07-27 06:33:57 51°22.743 2°43.498 4.4 2 15.7 101690 50
2011-07-27 06:34:03 51°22.742 2°43.478 9.3 2 15.7 101690 50
2011-07-27 06:34:07 51°22.742 2°43.466 6.4 2 15.7 101680 50
2011-07-27 06:34:13 51°22.742 2°43.448 9.4 2 15.7 101680 50
2011-07-27 06:34:17 51°22.741 2°43.437 9.4 3 15.7 101680 49
2011-07-27 06:34:23 51°22.741 2°43.419 10.5 4 15.7 101680 49
2011-07-27 06:34:27 51°22.741 2°43.409 7.9 2 15.7 101690 48
2011-07-27 06:34:33 51°22.741 2°43.392 4.1 356 15.7 101690 48
2011-07-27 06:34:37 51°22.742 2°43.382 8.3 1 15.7 101690 49
2011-07-27 06:34:43 51°22.742 2°43.368 8.4 1 15.7 101690 49
2011-07-27 06:34:47 51°22.741 2°43.361 7 1 15.7 101680 49
2011-07-27 06:34:53 51°22.741 2°43.351 7 1 15.7 101680 49
2011-07-27 06:34:57 51°22.741 2°43.346 6.1 5 15.7 101690 50
2011-07-27 06:35:03 51°22.74 2°43.339 6.8 4 15.7 101690 50
2011-07-27 06:35:08 51°22.739 2°43.335 6.5 5 15.7 101690 48
2011-07-27 06:35:13 51°22.738 2°43.332 7.1 6 15.7 101690 48
2011-07-27 06:35:17 51°22.737 2°43.331 6.7 4 15.7 101680 49
2011-07-27 06:35:23 51°22.734 2°43.329 5.4 6 15.7 101680 49
2011-07-27 06:35:28 51°22.733 2°43.329 5.7 8 15.7 101690 48
2011-07-27 06:35:33 51°22.731 2°43.33 6 10 15.7 101690 48
2011-07-27 06:35:37 51°22.729 2°43.331 5.7 9 15.7 101700 48
2011-07-27 06:35:43 51°22.726 2°43.332 6.8 10 15.7 101700 48
2011-07-27 06:35:49 51°22.724 2°43.335 6.3 13 15.7 101690 50
2011-07-27 06:35:54 51°22.722 2°43.336 5.4 15 15.7 101690 50
2011-07-27 06:36:00 51°22.72 2°43.337 5.4 17 15.7 101700 50
2011-07-27 06:36:05 51°22.718 2°43.339 5.3 23 15.7 101700 50
2011-07-27 06:36:11 51°22.716 2°43.34 5.4 19 15.7 101690 49
2011-07-27 06:36:16 51°22.714 2°43.341 7.7 22 15.7 101690 49
2011-07-27 06:36:21 51°22.713 2°43.343 6.5 22 15.7 101700 48
2011-07-27 06:36:26 51°22.711 2°43.344 7.4 23 15.7 101700 48
2011-07-27 06:36:31 51°22.71 2°43.345 6.6 23 15.7 101700 48
2011-07-27 06:36:36 51°22.708 2°43.346 8.7 24 15.7 101700 48
2011-07-27 06:36:41 51°22.706 2°43.347 8.1 24 15.7 101710 50
2011-07-27 06:36:46 51°22.705 2°43.348 8.8 23 15.7 101710 50
2011-07-27 06:36:51 51°22.704 2°43.349 7.5 21 15.7 101700 50
2011-07-27 06:36:56 51°22.702 2°43.35 8.3 22 15.7 101700 50
2011-07-27 06:37:01 51°22.701 2°43.351 4 22 15.7 101700 48
2011-07-27 06:37:05 51°22.699 2°43.352 10.1 23 15.7 101700 48
2011-07-27 06:37:10 51°22.698 2°43.353 7.4 24 15.7 101700 48
2011-07-27 06:37:15 51°22.696 2°43.353 7.2 24 15.7 101700 48
2011-07-27 06:37:20 51°22.695 2°43.355 9.6 25 15.6 101710 49
2011-07-27 06:37:25 51°22.694 2°43.356 9.5 33 15.6 101710 49
2011-07-27 06:37:29 51°22.693 2°43.357 8.4 29 15.6 101700 49
2011-07-27 06:37:34 51°22.692 2°43.359 8.4 30 15.6 101700 49
2011-07-27 06:37:39 51°22.691 2°43.36 8.7 32 15.6 101700 49
2011-07-27 06:37:44 51°22.689 2°43.362 8.5 31 15.6 101700 49
2011-07-27 06:37:49 51°22.688 2°43.363 9.1 33 15.6 101700 48
2011-07-27 06:37:54 51°22.687 2°43.364 7.5 35 15.6 101700 48
2011-07-27 06:37:58 51°22.686 2°43.365 7.5 34 15.6 101710 49
2011-07-27 06:38:04 51°22.685 2°43.366 6.6 33 15.6 101710 49
2011-07-27 06:38:09 51°22.683 2°43.367 8.7 36 15.5 101700 49
2011-07-27 06:38:14 51°22.683 2°43.367 6.7 35 15.5 101700 49
2011-07-27 06:38:20 51°22.68 2°43.368 7.5 35 15.5 101700 49
2011-07-27 06:38:25 51°22.679 2°43.369 7.7 32 15.5 101700 49
2011-07-27 06:38:31 51°22.677 2°43.369 5.9 32 15.5 101710 49
2011-07-27 06:38:36 51°22.676 2°43.369 7.4 32 15.5 101710 49
2011-07-27 06:38:41 51°22.675 2°43.369 6.1 29 15.5 101700 49
2011-07-27 06:38:45 51°22.674 2°43.369 8.7 32 15.5 101700 49
2011-07-27 06:38:51 51°22.672 2°43.369 7 34 15.5 101700 49
2011-07-27 06:38:56 51°22.671 2°43.368 7.5 33 15.5 101700 49
2011-07-27 06:39:01 51°22.67 2°43.368 8.5 33 15.6 101710 48
2011-07-27 06:39:06 51°22.668 2°43.367 6.7 34 15.6 101710 48
2011-07-27 06:39:10 51°22.666 2°43.366 8.2 32 15.6 101700 47
2011-07-27 06:39:15 51°22.664 2°43.365 7.8 31 15.6 101700 47
2011-07-27 06:39:20 51°22.662 2°43.362 7 26 15.6 101710 49
2011-07-27 06:39:25 51°22.66 2°43.36 7.5 26 15.6 101710 49
2011-07-27 06:39:30 51°22.658 2°43.357 8.2 23 15.6 101710 49
2011-07-27 06:39:35 51°22.655 2°43.354 7.5 21 15.6 101710 49
2011-07-27 06:39:40 51°22.653 2°43.35 6.9 22 15.6 101710 48
2011-07-27 06:39:45 51°22.651 2°43.347 9.7 18 15.6 101710 48
2011-07-27 06:39:49 51°22.649 2°43.343 8.4 21 15.6 101720 48
2011-07-27 06:39:54 51°22.647 2°43.339 6.5 17 15.6 101720 48
2011-07-27 06:39:59 51°22.645 2°43.335 7.3 16 15.6 101710 49
2011-07-27 06:40:04 51°22.643 2°43.329 3.8 12 15.6 101710 49
2011-07-27 06:40:09 51°22.642 2°43.323 9.1 10 15.6 101700 49
2011-07-27 06:40:13 51°22.641 2°43.317 4.2 7 15.6 101700 49
2011-07-27 06:40:18 51°22.64 2°43.31 7.1 5 15.6 101710 48
2011-07-27 06:40:23 51°22.639 2°43.302 7.8 1 15.6 101710 48
2011-07-27 06:40:28 51°22.639 2°43.294 7.9 355 15.6 101700 49
2011-07-27 06:40:33 51°22.64 2°43.287 9.3 355 15.6 101700 49
2011-07-27 06:40:38 51°22.641 2°43.28 10.2 353 15.6 101700 48
2011-07-27 06:40:43 51°22.642 2°43.272 9 348 15.6 101700 48
2011-07-27 06:40:47 51°22.644 2°43.267 7.7 347 15.6 101700 48
2011-07-27 06:40:53 51°22.647 2°43.259 8.4 346 15.6 101700 48
2011-07-27 06:40:57 51°22.649 2°43.254 9 282 15.6 101710 48
2011-07-27 06:41:03 51°22.653 2°43.248 8.4 338 15.6 101710 48
2011-07-27 06:41:07 51°22.655 2°43.245 8.2 286 15.6 101690 48
2011-07-27 06:41:13 51°22.659 2°43.241 9 333 15.6 101690 48
2011-07-27 06:41:17 51°22.662 2°43.239 8.6 281 15.6 101690 49
2011-07-27 06:41:23 51°22.666 2°43.236 7.4 331 15.6 101690 49
2011-07-27 06:41:28 51°22.67 2°43.234 7.8 279 15.6 101690 48
2011-07-27 06:41:33 51°22.673 2°43.234 8.4 321 15.6 101690 48
2011-07-27 06:41:37 51°22.676 2°43.234 7.9 318 15.6 101680 49
2011-07-27 06:41:43 51°22.679 2°43.235 8.1 316 15.6 101680 49
2011-07-27 06:41:48 51°22.682 2°43.237 6.6 26 15.6 101690 48
2011-07-27 06:41:53 51°22.685 2°43.239 7.4 36 15.6 101690 48
2011-07-27 06:41:57 51°22.687 2°43.241 8.3 278 15.7 101690 50
2011-07-27 06:42:03 51°22.69 2°43.245 8.4 31 15.7 101690 50
2011-07-27 06:42:08 51°22.693 2°43.248 7.6 279 15.7 101680 50
2011-07-27 06:42:13 51°22.696 2°43.253 8.2 38 15.7 101680 50
2011-07-27 06:42:17 51°22.698 2°43.256 7.5 277 15.7 101690 49
2011-07-27 06:42:23 51°22.702 2°43.261 7.7 37 15.7 101690 49
2011-07-27 06:42:28 51°22.705 2°43.266 7.9 282 15.7 101690 49
2011-07-27 06:42:33 51°22.708 2°43.27 9.2 36 15.7 101690 49
2011-07-27 06:42:37 51°22.71 2°43.274 8 316 15.7 101690 48
2011-07-27 06:42:42 51°22.713 2°43.277 8.7 317 15.7 101690 48
2011-07-27 06:42:48 51°22.716 2°43.281 7.8 315 15.7 101690 49
2011-07-27 06:42:53 51°22.719 2°43.284 7.9 317 15.7 101690 49
2011-07-27 06:42:57 51°22.721 2°43.286 8.4 282 15.7 101690 49
2011-07-27 06:43:02 51°22.723 2°43.289 8.1 315 15.7 101690 49
2011-07-27 06:43:08 51°22.726 2°43.291 8.9 316 15.7 101690 49
2011-07-27 06:43:13 51°22.727 2°43.293 6.9 35 15.7 101690 49
2011-07-27 06:43:17 51°22.728 2°43.293 7.2 280 15.7 101680 49
2011-07-27 06:43:22 51°22.729 2°43.295 6.7 36 15.7 101680 49
2011-07-27 06:43:28 51°22.73 2°43.296 6.8 286 15.7 101680 49
2011-07-27 06:43:33 51°22.73 2°43.297 6.6 32 15.7 101680 49
2011-07-27 06:43:37 51°22.729 2°43.297 7.2 316 15.7 101680 48
2011-07-27 06:43:43 51°22.729 2°43.297 7 38 15.7 101680 48
2011-07-27 06:43:47 51°22.728 2°43.298 8 280 15.7 101680 48
2011-07-27 06:43:53 51°22.728 2°43.298 6.6 38 15.7 101680 48
2011-07-27 06:43:57 51°22.727 2°43.299 6.4 25 15.7 101690 49
2011-07-27 06:44:03 51°22.727 2°43.3 6.6 38 15.7 101690 49
2011-07-27 06:44:07 51°22.726 2°43.301 7.9 284 15.7 101690 50
2011-07-27 06:44:13 51°22.726 2°43.303 7.2 34 15.7 101690 50
2011-07-27 06:44:17 51°22.726 2°43.304 7.3 22 15.7 101690 50
2011-07-27 06:44:23 51°22.726 2°43.305 8.5 234 15.7 101690 50
2011-07-27 06:44:28 51°22.726 2°43.307 8.9 284 15.7 101690 47
2011-07-27 06:44:33 51°22.725 2°43.308 7.4 36 15.7 101690 47
2011-07-27 06:44:37 51°22.725 2°43.308 8.4 27 15.7 101680 50
2011-07-27 06:44:42 51°22.724 2°43.309 7.9 239 15.7 101680 50
2011-07-27 06:44:48 51°22.723 2°43.31 9.2 282 15.8 101690 48
2011-07-27 06:44:53 51°22.723 2°43.311 8.2 31 15.8 101690 48
2011-07-27 06:44:57 51°22.723 2°43.313 9.2 285 15.7 101700 49
2011-07-27 06:45:03 51°22.722 2°43.315 7.9 33 15.7 101700 49
2011-07-27 06:45:07 51°22.723 2°43.317 8.6 281 15.7 101700 49
2011-07-27 06:45:13 51°22.723 2°43.32 8.7 235 15.7 101700 49
2011-07-27 06:45:17 51°22.724 2°43.322 8 284 15.7 101710 49
2011-07-27 06:45:23 51°22.724 2°43.324 8.7 236 15.7 101710 49
2011-07-27 06:45:27 51°22.724 2°43.326 8.2 280 15.7 101690 48
2011-07-27 06:45:33 51°22.724 2°43.328 7 236 15.7 101690 48
2011-07-27 06:45:37 51°22.724 2°43.329 7.7 20 15.7 101700 48
2011-07-27 06:45:43 51°22.723 2°43.33 7.5 238 15.7 101700 48
2011-07-27 06:45:48 51°22.722 2°43.332 8.3 22 15.7 101710 48
2011-07-27 06:45:53 51°22.722 2°43.333 7.3 238 15.7 101710 48
2011-07-27 06:45:57 51°22.721 2°43.334 7.1 284 15.7 101700 49
2011-07-27 06:46:03 51°22.72 2°43.336 7.1 241 15.7 101700 49
2011-07-27 06:46:08 51°22.719 2°43.336 8.4 24 15.7 101700 49
2011-07-27 06:46:13 51°22.718 2°43.337 7.6 240 15.7 101700 49
2011-07-27 06:46:17 51°22.717 2°43.339 8.9 278 15.7 101690 49
2011-07-27 06:46:23 51°22.716 2°43.34 7 241 15.7 101690 49
2011-07-27 06:46:28 51°22.715 2°43.341 7.1 284 15.7 101700 49
2011-07-27 06:46:33 51°22.714 2°43.342 7.5 241 15.7 101700 49
2011-07-27 06:46:37 51°22.713 2°43.342 6.8 26 15.7 101700 48
2011-07-27 06:46:42 51°22.712 2°43.344 8.1 241 15.7 101700 48
2011-07-27 06:46:48 51°22.712 2°43.346 6.7 280 15.7 101700 49
2011-07-27 06:46:53 51°22.711 2°43.348 7.7 243 15.7 101700 49
2011-07-27 06:46:57 51°22.71 2°43.349 6.8 279 15.7 101710 49
2011-07-27 06:47:02 51°22.71 2°43.351 7 244 15.7 101710 49
2011-07-27 06:47:08 51°22.709 2°43.353 6.7 22 15.7 101710 47
2011-07-27 06:47:13 51°22.708 2°43.355 7 246 15.7 101710 47
2011-07-27 06:47:17 51°22.707 2°43.356 6.3 243 15.7 101710 48
2011-07-27 06:47:22 51°22.706 2°43.357 6.6 245 15.7 101710 48
2011-07-27 06:47:27 51°22.705 2°43.358 6.9 22 15.7 101710 49
2011-07-27 06:47:33 51°22.704 2°43.359 7.2 246 15.7 101710 49
2011-07-27 06:47:37 51°22.703 2°43.36 7.8 249 15.8 101710 48
2011-07-27 06:47:42 51°22.703 2°43.361 7.5 247 15.8 101710 48
2011-07-27 06:47:47 51°22.701 2°43.362 6.4 27 15.8 101710 48
2011-07-27 06:47:53 51°22.701 2°43.363 6.3 246 15.8 101710 48
2011-07-27 06:47:57 51°22.7 2°43.364 7.1 278 15.8 101700 48
2011-07-27 06:48:02 51°22.699 2°43.365 7 248 15.8 101700 48
2011-07-27 06:48:08 51°22.698 2°43.366 7.1 26 15.8 101700 48
2011-07-27 06:48:13 51°22.697 2°43.367 7.8 247 15.8 101700 48
2011-07-27 06:48:17 51°22.696 2°43.367 8.3 249 15.8 101710 49
2011-07-27 06:48:22 51°22.695 2°43.368 8.2 247 15.8 101710 49
2011-07-27 06:48:27 51°22.694 2°43.369 7.6 248 15.8 101700 50
2011-07-27 06:48:33 51°22.692 2°43.37 8.6 249 15.8 101700 50
2011-07-27 06:48:37 51°22.691 2°43.37 7.3 23 15.8 101700 50
2011-07-27 06:48:42 51°22.69 2°43.371 8.6 249 15.8 101700 50
2011-07-27 06:48:48 51°22.688 2°43.371 8.2 249 15.8 101700 50
2011-07-27 06:48:53 51°22.687 2°43.372 7.8 248 15.8 101700 50
2011-07-27 06:48:57 51°22.686 2°43.372 8.6 21 15.8 101720 50
2011-07-27 06:49:03 51°22.685 2°43.373 7.4 246 15.8 101720 50
2011-07-27 06:49:08 51°22.683 2°43.373 7.7 247 15.8 101710 49
2011-07-27 06:49:13 51°22.682 2°43.374 7.1 247 15.8 101710 49
2011-07-27 06:49:17 51°22.681 2°43.374 7.7 21 15.8 101710 48
2011-07-27 06:49:22 51°22.679 2°43.374 7.8 246 15.8 101710 48
2011-07-27 06:49:28 51°22.678 2°43.375 7.7 246 15.8 101710 49
2011-07-27 06:49:33 51°22.676 2°43.375 7.5 248 15.8 101710 49
2011-07-27 06:49:37 51°22.675 2°43.375 8.1 20 15.8 101710 49
2011-07-27 06:49:42 51°22.674 2°43.376 7.2 249 15.8 101710 49
2011-07-27 06:49:48 51°22.672 2°43.376 7.5 20 15.8 101700 48
2011-07-27 06:49:53 51°22.67 2°43.376 7.7 248 15.8 101700 48
2011-07-27 06:49:57 51°22.669 2°43.376 7.5 24 15.8 101720 50
2011-07-27 06:50:02 51°22.668 2°43.376 6.6 249 15.8 101720 50
2011-07-27 06:50:07 51°22.666 2°43.376 6.7 251 15.8 101710 48
2011-07-27 06:50:13 51°22.664 2°43.376 7.8 251 15.8 101710 48
2011-07-27 06:50:17 51°22.663 2°43.376 7 286 15.8 101720 48